Location: Poughquag
(41.6090°N, 73.6820°W)
Time: 05:42:40
(UTC-04:00)

S-56A Canister/Altair - Pass Details

Date: 29 May 2020
Orbit: 633 x 2499 km, 38.9° (Epoch: 06 July)

Event Time Altitude Azimuth Distance (km) Brightness Sun altitude
Exits shadow 04:15:20 - 186° (S) 2,733 9.9 -11.2°
Reaches altitude 10° 04:16:32 10° 177° (S) 2,473 9.8 -11.0°
Maximum altitude 04:20:24 18° 135° (SE) 2,235 9.9 -10.5°
Drops below altitude 10° 04:25:12 10° 95° (E) 3,185 11.4 -9.8°
Sets 04:29:41 0° 79° (E) 4,550 12.7 -9.2°
